Location: Monroe
(41.9160°N, 83.3980°W)
Time: 19:05:56
(UTC-04:00)

ISS - Visible Passes

Search period start: 27 July 2016 00:00
Search period end: 06 August 2016 00:00
Orbit: 401 x 404 km, 51.6° (Epoch: 27 July)

Date Brightness Start Highest point End Pass type
(mag) Time Alt. Az. Time Alt. Az. Time Alt. Az.
27 Jul -0.4 00:43:10 10° WNW 00:45:29 18° NNW 00:47:49 10° NNE visible
27 Jul -0.2 02:20:44 10° NNW 02:22:52 16° N 02:24:58 10° NE visible
27 Jul -1.9 03:56:50 10° NW 03:59:57 39° NNE 04:03:02 10° E visible
27 Jul -2.3 05:33:29 10° WNW 05:36:16 26° SW 05:39:02 10° SSE visible
27 Jul -3.5 22:12:22 10° SW 22:15:36 75° SE 22:18:51 10° ENE visible
27 Jul -0.8 23:49:40 10° WNW 23:52:19 22° NNW 23:54:59 10° NE visible
28 Jul -0.1 01:27:40 10° NW 01:29:38 15° N 01:30:09 14° NNE visible
28 Jul -0.9 03:08:08 20° ENE 03:08:08 20° ENE 03:09:42 10° E visible
28 Jul -3.3 04:41:16 18° WNW 04:43:28 51° SW 04:46:37 10° SE visible
28 Jul -1.4 22:56:15 10° W 22:59:13 31° NNW 23:02:11 10° NE visible
29 Jul -0.2 00:34:23 10° NW 00:36:24 15° N 00:38:12 11° NNE visible
29 Jul -2.4 22:02:59 10° WSW 22:06:10 50° NNW 22:09:21 10° NE visible
29 Jul -0.3 23:40:56 10° NW 23:43:10 17° N 23:45:24 10° NNE visible
30 Jul -0.1 01:18:21 10° NNW 01:19:20 14° NNW 01:19:20 14° NNW visible
30 Jul -0.6 22:47:26 10° WNW 22:49:59 21° NNW 22:52:33 10° NE visible
31 Jul -0.3 00:25:20 10° NW 00:27:19 15° N 00:27:58 14° NNE visible
31 Jul -1.2 21:53:58 10° W 21:56:51 28° NNW 21:59:44 10° NE visible
31 Jul -0.3 23:32:05 10° NW 23:34:04 15° N 23:36:03 10° NE visible
01 Aug 0.0 01:08:48 10° NW 01:09:15 12° NNW 01:09:15 12° NNW visible
01 Aug -0.4 22:38:40 10° NW 22:40:50 16° N 22:42:59 10° NNE visible
02 Aug -0.5 00:15:56 10° NNW 00:17:57 17° N 00:17:57 17° N visible
02 Aug -0.6 21:45:10 10° WNW 21:47:37 19° NNW 21:50:05 10° NE visible
02 Aug -0.5 23:22:56 10° NNW 23:24:58 15° N 23:26:40 11° NE visible
03 Aug 0.1 00:59:08 10° NW 00:59:15 11° NW 00:59:15 11° NW visible
03 Aug -0.4 22:29:45 10° NW 22:31:43 15° N 22:33:41 10° NE visible
04 Aug -0.6 00:06:20 10° NW 00:07:59 20° N 00:07:59 20° N visible
04 Aug -0.5 21:36:22 10° NW 21:38:28 16° N 21:40:33 10° NNE visible
04 Aug -0.9 23:13:28 10° NNW 23:15:49 18° NNE 23:16:44 16° NE visible
05 Aug -0.6 22:20:30 10° NNW 22:22:35 16° N 22:24:40 10° NE visible
